Wind_Speed
89 88 87 85 83 82 81 80 78 76 75 74 73 71 69 69 69 70 71 72 74 75 76 76 75 74 72 70 67 66 65 64 64 64 64 64 64 63 63 63 63 63 63 63 64 64 65 65 65 64 64 64 64 64 64 64 64 65 65 66 67 68 68 68 68 68 69 69 69 69 69 69 69 70 71 73 75 77 80 83 86 88 90 92 93 95
86 85 84 82 80 79 79 78 76 74 73 71 70 69 68 69 70 71 72 73 74 75 74 74 73 71 69 67 65 63 62 62 62 62 63 63 63 62 62 62 62 62 62 63 63 64 64 64 65 65 64 64 64 64 64 64 65 65 66 66 67 68 69 69 69 69 69 68 68 68 68 68 68 69 70 71 72 74 77 80 83 86 89 91 92 94
83 82 82 80 79 77 76 75 74 72 70 69 68 68 69 71 72 73 74 75 74 74 72 71 69 68 66 64 62 61 60 60 60 61 61 61 61 61 61 61 61 61 62 62 63 63 64 64 64 64 64 64 64 64 64 64 65 65 66 66 67 68 69 69 69 69 69 68 68 67 67 68 69 70 70 71 71 72 74 77 80 83 86 89 91 93
80 79 79 79 77 76 75 73 72 70 69 69 69 70 71 73 75 75 75 75 74 72 70 67 66 65 63 62 60 59 58 58 58 59 59 60 60 60 60 60 60 60 61 62 62 62 63 63 63 63 64 64 64 64 64 64 64 65 65 66 67 68 69 69 70 70 69 69 68 68 68 70 71 71 71 71 71 72 73 74 77 79 83 86 89 92
79 77 77 77 76 74 73 72 71 70 70 70 71 73 75 76 76 75 74 73 71 69 67 64 62 61 61 60 59 57 57 56 56 57 57 58 58 58 59 59 59 60 60 61 61 61 62 62 62 62 62 62 62 62 63 63 63 63 64 65 66 67 68 69 69 69 69 69 69 70 70 71 72 72 72 72 72 72 72 73 74 76 79 83 86 89
77 76 75 75 74 73 72 71 71 71 73 74 75 76 76 76 75 73 71 69 67 65 63 61 60 59 58 58 57 56 56 55 55 55 55 56 56 57 57 58 58 59 60 60 60 60 60 61 61 61 60 60 60 61 61 61 61 62 62 63 64 65 66 67 68 68 68 69 70 71 71 72 72 73 73 73 73 73 72 72 72 74 76 79 83 87
76 75 73 73 72 71 71 71 72 74 76 77 77 77 75 74 72 70 67 65 63 62 60 59 57 56 56 56 55 55 55 54 54 54 54 55 55 55 56 57 58 58 59 59 59 59 60 60 60 59 59 59 59 59 59 59 60 60 60 61 61 62 63 64 65 66 67 68 69 71 72 72 73 73 73 74 74 74 73 72 72 73 74 77 80 84
74 73 72 71 71 71 71 72 74 76 77 78 78 76 74 71 69 66 64 61 60 59 58 57 56 55 54 54 54 55 54 54 54 54 54 54 55 55 56 56 57 57 58 58 58 59 59 59 59 59 58 58 57 57 58 58 59 59 59 59 60 60 61 61 62 63 65 66 68 70 71 72 72 73 73 74 75 74 74 73 73 72 73 74 77 81
73 72 71 71 71 72 74 75 76 77 78 77 76 74 71 69 66 64 61 59 57 57 56 56 55 54 53 53 54 54 55 55 55 54 54 54 55 55 55 56 56 56 57 57 57 58 58 58 58 58 58 57 57 57 57 57 58 58 59 59 59 59 59 60 60 61 62 64 66 67 69 70 71 72 73 74 75 75 75 74 73 73 73 73 75 78
72 71 71 71 72 74 76 78 78 78 77 75 73 70 68 66 64 62 60 57 56 55 55 55 55 55 54 53 53 54 55 55 54 54 54 54 55 55 55 55 55 55 55 56 56 57 57 57 57 57 57 56 56 56 55 56 56 57 58 58 58 58 58 59 59 60 61 62 63 65 66 68 69 70 72 73 75 75 75 75 74 74 74 74 74 76
71 72 72 74 75 76 78 79 78 77 74 72 69 67 65 63 63 62 60 58 56 55 55 55 55 54 54 54 53 53 54 54 54 53 53 53 53 54 54 54 54 54 54 54 55 55 55 55 55 55 55 55 54 53 53 53 54 55 55 56 57 57 57 58 58 59 60 61 62 63 64 66 67 69 70 72 74 75 75 75 75 75 75 75 74 75
72 73 74 76 78 79 79 78 76 74 71 68 66 64 63 62 61 61 60 59 57 56 55 54 53 53 53 52 52 52 52 52 52 51 51 51 51 51 52 52 52 52 52 52 52 52 52 53 53 53 52 52 51 51 51 51 51 52 52 53 54 55 56 56 57 58 59 60 61 62 63 65 66 68 69 71 72 73 74 75 75 76 76 75 74 74
73 75 77 78 79 79 78 76 73 70 67 65 64 63 62 61 60 60 60 59 57 56 55 53 52 50 49 49 49 49 50 50 49 48 47 47 47 48 49 50 50 49 49 49 49 49 49 50 50 49 49 49 48 48 48 48 48 49 49 50 51 52 53 54 55 56 57 59 60 62 63 64 66 67 68 70 71 72 73 74 75 76 76 76 75 74
74 77 79 80 79 78 75 72 69 66 64 63 62 62 62 61 60 59 59 57 56 54 53 51 49 46 44 44 44 45 46 46 46 45 44 44 44 45 46 47 47 46 46 46 46 46 46 46 46 46 46 45 45 45 45 45 45 46 46 47 48 49 50 51 52 54 55 57 59 61 62 64 65 67 68 69 70 71 73 74 75 76 76 76 75 74
77 79 80 79 77 74 71 68 66 64 62 62 61 61 61 60 59 58 56 55 53 51 49 47 44 41 39 38 39 41 43 43 43 42 41 41 41 43 44 45 44 44 43 43 43 42 42 42 42 42 42 42 42 42 42 42 42 42 42 43 44 45 47 48 50 51 53 55 57 59 61 63 64 65 67 68 69 71 72 74 75 75 76 76 75 74
78 79 79 77 73 70 67 64 63 62 61 61 61 60 59 58 56 54 52 50 48 46 44 42 40 37 34 33 34 37 40 41 42 41 40 39 39 40 42 43 42 41 40 39 39 39 39 38 38 38 37 37 37 37 37 37 37 38 38 39 40 41 43 45 46 48 50 52 54 56 58 60 62 63 65 67 68 70 72 73 74 75 75 75 74 73
79 78 76 73 69 66 63 62 61 61 60 60 59 58 56 54 52 49 47 45 44 42 40 39 37 35 32 30 31 34 37 40 41 41 40 39 38 38 40 40 40 38 36 36 35 35 34 34 33 33 32 32 31 31 31 31 32 32 33 34 35 36 38 40 42 44 46 48 50 52 54 56 58 60 62 65 67 69 71 72 73 74 74 74 73 72
77 75 71 68 65 63 61 60 60 59 59 58 56 54 51 49 46 44 42 41 40 39 37 37 36 35 34 32 31 33 36 39 41 41 39 38 36 36 37 38 37 35 33 32 31 31 30 29 28 27 26 26 25 25 25 26 26 27 27 28 30 31 33 35 37 39 41 43 45 47 50 52 55 57 60 62 65 67 69 71 72 72 72 72 72 71
73 69 66 64 62 61 60 59 58 57 56 54 52 49 46 43 41 40 39 38 37 37 36 35 35 34 34 33 32 33 36 39 40 40 39 37 35 34 34 35 34 32 29 28 27 26 25 24 23 22 21 21 20 20 20 21 21 22 22 24 25 26 28 30 32 34 36 38 40 43 45 48 51 53 56 59 62 64 67 68 70 70 71 71 71 70
68 64 62 61 60 59 58 56 55 53 51 49 47 45 42 40 39 37 37 36 36 35 35 34 34 34 34 33 33 34 37 39 40 39 38 36 33 32 32 32 30 28 26 24 23 22 21 20 18 18 17 17 18 18 19 20 20 20 20 20 21 22 23 25 27 30 32 34 36 38 41 43 46 49 52 55 58 60 63 65 67 68 69 69 69 69
63 60 58 58 58 57 56 53 51 48 46 45 43 42 41 39 38 37 36 36 35 34 34 33 34 34 34 34 34 35 37 39 39 39 37 34 31 29 29 29 27 25 22 20 19 18 17 16 15 15 16 17 18 19 21 22 22 23 22 22 22 22 21 22 23 25 27 30 32 34 37 39 41 44 47 50 53 56 59 61 64 66 67 68 68 68
59 57 56 56 55 54 52 49 46 44 42 41 41 41 41 40 39 38 37 36 35 34 33 33 33 34 34 35 35 35 37 38 39 38 36 32 29 26 26 26 24 22 19 17 16 15 14 13 13 14 15 16 17 19 20 22 23 24 25 26 26 26 25 23 22 22 23 26 28 30 32 34 37 39 42 45 48 51 55 58 61 63 64 65 66 66
56 55 54 53 52 50 48 45 42 41 40 40 41 41 41 41 41 40 38 37 36 35 34 33 32 32 33 34 34 35 36 37 38 37 35 31 27 24 23 23 22 19 16 14 13 12 11 11 12 13 14 14 15 16 18 20 21 23 25 27 29 29 27 26 24 22 22 22 24 26 28 30 33 35 38 41 44 48 51 54 57 59 61 62 63 64
53 53 52 50 48 46 43 42 40 40 40 41 42 42 42 42 41 40 39 38 37 35 34 32 31 31 31 32 32 33 34 36 36 35 33 30 25 21 20 20 19 17 14 12 11 10 9 9 10 12 12 12 13 14 16 18 21 23 26 29 30 29 27 25 23 21 20 20 20 22 24 26 29 31 34 37 40 43 47 50 52 55 57 58 60 61
51 50 48 46 44 42 40 40 40 41 42 44 44 44 44 43 42 40 39 38 37 36 34 32 31 30 30 30 30 31 32 34 34 33 31 27 22 18 17 18 17 14 12 10 10 8 7 8 9 9 10 10 11 13 15 18 21 25 28 29 29 28 25 23 20 19 18 17 17 18 19 21 24 26 29 32 35 38 41 44 47 49 52 54 57 59
47 45 44 42 40 39 39 40 42 43 45 46 46 46 45 44 42 41 40 39 38 36 34 32 30 29 28 28 28 29 30 31 31 30 28 23 17 13 14 15 14 12 10 9 8 7 6 6 7 7 7 8 10 12 15 18 22 25 27 27 26 25 22 20 17 16 14 14 14 14 15 16 18 20 23 25 28 31 35 38 41 45 48 51 54 58
42 41 39 38 38 38 40 41 43 45 46 47 47 47 46 45 43 41 40 38 37 35 33 31 30 28 27 27 27 28 29 29 29 27 23 19 13 9 10 11 11 9 8 7 7 6 5 5 4 4 4 6 8 11 14 18 22 24 25 25 23 22 20 17 15 13 11 10 10 10 10 11 12 14 17 19 23 26 30 33 37 41 45 49 53 56
37 36 36 36 37 39 41 43 45 46 47 48 47 47 46 45 43 41 39 37 35 33 31 30 29 28 26 25 26 27 28 28 26 24 20 16 10 6 7 8 8 7 6 6 5 5 3 2 2 1 2 4 7 11 15 19 21 23 23 23 21 20 18 16 13 11 9 7 6 5 6 6 8 9 12 15 19 22 27 31 35 39 44 48 52 55
34 34 35 36 38 41 43 44 46 46 47 47 46 45 44 43 42 40 37 35 33 31 29 29 28 27 26 25 24 25 26 27 25 22 19 15 10 5 5 5 5 5 5 4 3 3 2 3 3 3 2 3 6 11 15 18 20 21 21 21 20 19 17 14 11 9 6 4 3 2 2 4 5 7 10 13 17 21 25 30 34 39 43 47 51 54
31 33 35 37 40 42 44 45 45 46 45 45 44 43 41 40 39 38 35 33 31 29 28 27 27 27 26 25 24 23 25 26 24 21 19 16 11 7 5 5 5 5 4 3 2 2 4 4 4 4 3 3 7 11 15 18 19 20 20 19 19 18 16 12 9 6 4 2 1 1 3 4 5 7 10 13 16 20 25 29 34 38 42 46 49 52
31 33 36 38 40 42 43 43 43 43 42 41 40 39 38 37 36 34 33 31 29 28 27 27 27 26 26 25 23 22 23 25 24 22 19 18 14 10 8 7 6 5 4 2 0 3 5 5 4 4 3 4 8 12 16 17 18 18 19 18 18 17 15 11 7 3 2 1 2 3 4 5 7 8 11 13 17 21 25 29 33 37 41 44 46 48
33 35 37 39 40 41 41 40 40 39 38 37 36 35 34 33 32 31 30 29 28 27 26 26 26 26 25 24 23 22 22 24 24 23 21 19 16 13 10 8 7 5 3 1 1 3 5 5 4 3 1 5 9 12 15 16 17 17 18 17 17 17 16 12 7 2 0 2 3 4 5 6 8 9 11 14 17 21 24 28 32 35 38 40 42 44
35 36 38 38 38 38 37 36 35 35 34 33 32 31 30 30 29 29 28 27 26 26 26 26 26 25 23 22 22 22 23 23 23 23 21 20 17 14 11 9 7 5 3 1 2 3 4 4 4 2 1 5 9 11 13 14 16 17 17 17 17 18 16 13 8 4 2 3 4 5 6 7 8 10 12 15 18 21 24 27 30 32 35 37 38 40
35 36 36 35 34 34 33 33 32 31 31 30 29 28 27 27 26 26 26 25 25 25 25 25 25 24 22 21 21 21 22 22 22 22 21 19 17 14 11 9 7 5 3 2 3 4 4 4 4 3 3 4 7 10 12 14 15 16 17 17 18 18 17 13 9 6 3 2 3 5 6 8 9 11 13 15 18 20 23 26 28 30 32 34 35 37
34 33 33 32 31 30 30 29 29 29 28 27 26 25 25 24 24 24 24 23 23 24 24 25 24 23 22 21 20 20 20 21 21 21 20 19 16 13 10 7 5 3 2 2 2 3 4 4 4 4 3 3 5 8 11 14 15 16 17 18 19 18 16 12 9 6 4 2 3 5 7 9 10 12 14 16 18 20 22 25 27 29 31 32 34 35
31 30 30 29 28 28 27 27 26 26 25 24 24 23 23 23 22 22 22 22 22 23 23 23 23 22 21 20 20 20 20 20 20 20 19 18 17 14 10 7 5 3 2 1 1 1 1 2 2 2 2 3 5 7 10 13 15 16 17 18 19 17 14 11 8 5 3 1 2 4 7 8 10 12 14 16 18 21 23 25 27 28 30 31 33 34
28 28 27 27 26 26 25 24 23 23 22 22 22 22 22 22 21 21 21 21 22 22 22 22 22 21 20 19 19 19 19 19 19 18 18 18 17 15 13 10 7 6 5 4 4 4 4 3 2 1 3 4 6 7 9 12 14 15 16 18 18 15 12 9 8 7 6 5 4 5 7 9 11 12 15 17 19 21 24 26 28 29 30 31 32 34
26 25 25 25 24 23 23 22 21 21 20 20 20 21 21 21 21 21 21 21 21 21 21 21 21 20 19 19 19 18 18 18 18 18 18 17 17 16 15 14 12 10 9 8 8 8 7 7 6 6 6 7 8 8 9 11 13 14 14 16 15 12 10 10 10 10 10 9 8 8 9 11 12 14 16 18 20 22 25 27 29 30 31 32 33 34
24 24 23 23 22 22 21 20 20 19 19 19 20 20 20 21 21 21 21 21 21 21 21 20 20 20 19 19 18 18 17 17 18 18 18 18 17 17 16 15 15 14 14 13 12 11 10 10 10 10 11 11 10 9 9 11 12 12 13 14 12 9 10 12 13 12 11 9 8 8 10 12 14 16 17 19 21 23 25 28 30 31 32 33 33 34
22 22 22 21 21 20 20 19 19 19 19 19 19 20 20 20 20 21 21 21 21 21 20 20 20 20 20 19 19 18 17 17 17 18 18 18 18 18 17 16 15 15 15 14 14 13 12 11 11 12 12 12 10 8 8 10 11 11 12 12 8 10 14 14 13 11 9 7 6 7 8 11 14 17 19 21 22 24 26 27 29 30 31 33 34 35
21 21 21 20 20 19 19 19 19 19 20 20 20 19 19 19 19 20 20 20 20 20 20 20 20 21 21 20 19 18 17 16 16 16 17 18 18 18 17 16 15 15 14 14 14 13 13 12 11 11 11 9 7 6 7 9 9 10 10 8 6 13 15 14 12 9 7 5 3 4 5 8 11 14 17 19 21 22 24 25 27 28 30 32 34 36
20 20 20 20 19 19 19 19 19 20 20 20 20 19 19 18 18 18 18 18 19 19 19 19 20 21 21 21 20 19 18 17 16 16 16 16 17 17 17 16 15 14 14 13 13 12 12 11 10 10 8 5 3 4 6 8 8 8 8 4 8 14 15 13 11 8 5 2 2 3 4 6 8 11 13 15 16 18 20 22 24 27 29 31 33 35
19 19 19 19 19 19 19 19 19 20 20 20 19 19 18 18 18 17 17 17 18 18 18 19 20 21 21 22 21 21 20 19 18 16 15 14 14 14 14 14 13 12 12 12 12 11 10 8 8 6 5 3 3 4 6 6 6 6 5 3 10 16 16 13 10 7 4 2 3 3 4 5 7 9 11 12 13 15 16 19 21 24 26 29 31 33
19 19 19 19 19 19 19 19 19 19 19 19 18 18 18 18 17 17 17 17 17 17 18 18 19 20 21 22 22 22 22 21 20 18 16 14 13 12 11 11 10 10 10 9 9 8 7 6 5 4 3 4 4 5 5 4 4 5 3 4 11 15 15 13 10 7 5 4 4 4 5 6 8 9 10 11 12 13 14 15 17 20 22 25 28 30
19 19 19 19 19 19 20 20 20 19 19 18 18 17 17 17 16 16 16 16 17 17 17 18 19 20 21 22 23 23 23 22 21 20 18 15 13 11 9 8 7 7 7 7 7 6 6 5 4 4 4 5 5 5 4 2 2 2 1 5 9 13 15 13 11 9 7 6 6 6 7 7 9 10 11 12 12 13 13 14 15 16 18 20 23 26
19 19 19 19 19 19 20 20 19 19 18 18 17 16 16 16 16 16 16 16 16 17 17 18 19 20 21 22 23 23 23 23 22 21 20 17 14 11 9 7 5 5 6 6 6 5 5 4 4 5 5 5 4 3 2 1 0 1 3 5 8 10 12 11 10 8 8 8 9 9 9 9 10 11 13 13 14 14 14 14 15 15 16 18 19 21
19 19 19 19 19 19 19 19 19 19 18 17 17 16 15 15 15 15 15 15 16 16 17 19 20 21 22 22 22 22 22 22 22 22 20 18 15 12 9 6 5 5 6 6 5 5 4 4 5 5 5 4 2 1 2 3 4 5 6 8 9 9 10 10 10 10 10 11 11 11 11 11 11 13 14 14 15 15 15 15 16 16 17 18 19 20
18 19 19 19 19 19 19 18 18 18 18 17 17 16 15 14 14 14 14 15 15 16 17 19 20 21 22 22 22 22 22 22 22 21 20 18 16 12 9 7 6 6 6 6 5 5 4 5 6 5 3 2 2 3 5 7 7 8 10 11 12 12 12 12 13 14 14 14 14 13 12 12 13 14 15 16 16 16 16 17 17 18 18 19 19 20
19 19 19 19 19 18 18 18 18 18 17 17 16 16 15 15 15 14 14 14 15 16 17 18 19 20 21 21 22 22 22 23 22 21 20 18 15 12 10 8 8 7 7 7 6 6 5 6 6 5 4 3 4 6 9 10 10 11 13 14 15 15 15 16 17 17 17 16 15 14 14 13 14 15 17 17 17 18 18 18 19 19 19 19 20 20
19 19 19 19 18 18 18 18 17 17 17 16 16 16 15 15 15 15 14 14 15 15 17 17 18 19 19 20 21 21 22 23 22 21 19 17 15 12 11 10 10 9 8 7 6 5 5 5 5 5 6 7 8 10 11 12 13 14 15 16 17 17 18 18 19 19 18 17 16 15 14 14 15 16 18 18 18 18 19 19 19 19 20 20 20 20
19 19 18 18 18 18 18 17 17 17 16 16 16 16 15 15 15 14 14 14 15 15 16 17 17 17 18 19 20 21 22 23 23 21 19 17 14 13 12 12 11 10 8 7 6 5 4 5 5 7 8 10 12 13 13 14 15 16 17 18 18 19 19 20 20 20 19 17 16 15 15 15 16 16 17 18 18 18 18 19 19 19 20 20 20 21
Wind_Direction
302 302 301 301 301 301 301 300 301 301 300 300 299 299 299 298 298 297 298 298 298 299 299 298 297 296 295 294 293 291 290 288 287 286 285 284 284 283 282 282 281 280 278 277 276 275 274 273 272 271 270 268 267 266 265 263 262 261 260 259 258 257 256 255 254 252 250 249 247 246 245 244 243 242 241 239 238 237 236 235 234 233 233 232 231 231
302 302 302 301 302 302 301 301 301 301 301 300 300 300 300 299 299 299 299 299 299 299 298 298 297 296 294 293 292 290 289 287 286 286 285 284 284 283 283 282 281 280 279 277 276 275 274 273 272 271 270 269 267 266 265 263 262 261 260 259 258 257 256 255 254 252 251 250 248 247 245 243 242 241 240 239 238 237 236 235 234 233 232 231 230 230
302 302 302 302 302 303 302 302 302 302 302 302 301 302 302 302 301 301 301 300 300 299 298 297 296 295 293 292 291 290 288 287 286 286 285 285 284 284 283 282 281 280 279 278 276 275 275 274 273 272 271 270 268 267 265 264 262 261 259 258 257 256 256 255 254 253 251 250 249 247 245 243 241 240 239 238 238 237 236 235 234 233 232 231 230 229
303 303 303 303 303 304 304 304 304 304 303 304 304 304 304 304 303 302 302 301 300 299 297 296 295 294 293 292 291 290 288 287 287 286 286 285 285 284 284 283 282 280 279 278 277 276 275 274 274 273 272 271 270 268 267 265 263 261 260 258 257 256 255 255 254 253 251 250 248 246 244 242 240 239 238 238 237 237 236 236 234 233 232 231 230 229
304 304 304 304 305 305 305 305 305 305 305 305 305 305 305 304 303 302 301 300 299 298 297 296 295 294 293 292 291 290 289 288 287 287 286 286 285 284 284 283 281 280 279 278 277 277 276 275 274 273 272 271 270 269 268 266 265 263 261 259 258 256 255 254 254 253 251 250 248 246 244 243 241 240 239 238 237 237 236 236 235 234 232 231 230 228
305 305 305 306 306 306 307 307 307 307 307 306 306 305 305 304 303 302 301 300 299 298 297 296 295 294 294 293 292 291 290 289 288 287 286 285 284 284 283 282 281 280 279 279 278 277 276 276 275 274 273 272 271 270 269 267 266 264 262 260 259 257 256 255 254 252 251 250 248 246 245 243 242 240 239 238 237 237 236 236 235 234 233 231 230 228
306 306 306 307 307 307 307 307 307 307 307 306 306 305 304 303 302 301 300 299 299 298 297 296 296 295 294 294 293 292 291 290 289 287 286 285 284 283 282 281 280 280 279 279 278 278 277 276 275 274 273 272 271 270 269 267 266 265 263 261 260 258 256 255 254 252 251 250 248 247 245 244 243 241 240 239 238 237 237 236 235 234 233 232 230 229
306 306 307 307 307 307 307 307 307 307 307 307 306 305 304 303 302 301 301 300 299 299 298 297 297 296 295 295 294 294 292 291 289 288 286 285 284 283 282 281 280 280 280 279 279 278 277 276 275 274 273 272 271 270 269 268 266 265 264 262 260 259 257 255 254 252 251 249 248 247 245 244 243 242 241 240 239 238 237 236 235 235 234 232 231 229
307 307 307 307 308 308 308 308 308 308 308 307 306 306 305 304 303 302 301 301 300 300 299 298 298 297 297 296 295 294 293 291 290 288 287 286 284 283 282 281 281 280 280 279 279 278 278 277 276 275 274 273 272 270 269 268 267 265 264 262 261 259 257 256 254 252 251 249 248 247 246 244 243 242 241 240 239 238 237 236 235 235 234 233 232 230
307 307 308 308 308 309 309 309 309 309 308 308 307 306 305 305 304 303 302 302 301 301 300 300 299 299 298 297 296 295 293 291 290 288 287 286 285 284 283 282 281 280 280 279 279 278 278 277 277 276 275 274 273 272 270 269 267 266 265 263 261 260 258 256 254 252 251 249 248 247 246 244 243 242 240 240 239 238 237 236 235 234 233 233 232 231
308 308 309 309 309 310 310 310 310 309 309 308 307 306 305 305 304 304 304 303 303 302 301 301 301 300 300 298 296 294 293 291 289 288 287 286 285 284 284 283 282 281 280 279 279 279 279 278 278 278 277 276 275 274 272 270 269 267 266 264 262 260 258 256 254 253 251 249 248 246 245 244 242 241 240 239 238 237 236 235 234 233 233 232 232 231
308 309 310 310 310 311 311 310 310 309 308 308 307 306 305 305 305 305 305 305 305 304 303 302 302 301 301 299 297 295 292 291 289 288 287 286 286 285 284 283 282 282 281 280 280 280 280 280 279 279 279 278 277 276 274 272 270 268 266 265 263 261 259 257 255 253 251 249 248 246 245 243 241 240 239 238 237 237 236 235 234 233 232 232 231 230
309 310 310 311 311 311 311 310 310 309 308 307 307 306 306 306 306 306 306 306 306 306 305 304 303 302 302 300 298 295 293 291 290 289 288 287 286 285 284 283 283 282 282 281 281 281 281 280 280 280 280 280 279 277 276 273 271 269 267 265 263 261 259 257 255 253 251 249 248 246 244 243 241 239 238 237 236 235 235 234 233 232 232 231 230 230
310 310 311 311 311 311 311 310 309 309 308 308 307 307 307 307 307 308 307 307 307 307 306 305 305 304 303 301 299 297 294 292 291 290 290 289 288 287 286 285 284 283 283 282 282 281 281 281 281 281 281 281 280 279 277 275 272 270 268 266 264 262 260 257 255 253 251 249 248 246 244 243 241 239 238 236 235 234 234 233 232 232 231 230 229 229
311 311 311 311 311 311 310 310 309 309 308 308 308 308 308 309 309 309 309 309 309 308 308 307 307 306 306 304 302 299 296 294 293 292 292 291 291 289 288 287 286 285 284 283 283 282 282 282 282 282 282 281 280 279 278 276 274 272 270 267 265 263 260 258 256 254 252 250 248 247 245 243 242 240 238 237 235 234 233 232 232 231 230 229 228 228
311 311 311 311 311 310 310 309 309 309 309 309 309 309 310 310 311 311 311 311 311 311 311 310 310 309 309 307 305 302 299 297 295 294 294 293 293 291 290 288 287 286 285 284 284 283 283 283 283 283 283 282 282 281 280 278 277 275 272 270 267 265 262 260 258 256 253 251 250 248 247 245 243 241 239 237 236 235 233 232 231 230 229 228 227 227
312 311 311 311 310 310 310 309 309 309 309 310 310 311 312 313 313 314 314 314 315 315 315 315 315 314 313 311 307 304 300 298 296 295 295 295 294 293 291 289 288 286 285 285 284 284 284 284 284 284 284 284 284 283 283 282 281 279 277 274 272 269 266 264 261 259 257 254 252 250 248 246 244 242 240 238 236 235 233 232 231 230 229 228 227 226
311 311 311 310 310 310 310 310 310 310 311 311 312 313 314 315 316 317 318 319 319 319 320 319 319 319 318 316 312 307 302 299 297 296 296 296 295 294 291 289 288 287 286 285 285 285 284 285 285 286 286 286 287 287 287 287 287 286 284 282 279 276 272 269 266 263 260 257 255 252 250 248 245 243 241 238 236 235 233 232 231 230 228 227 226 224
311 311 310 310 310 310 310 311 311 312 312 313 314 316 317 319 320 321 322 323 323 323 324 324 323 323 322 320 316 310 304 300 299 298 297 297 297 295 292 289 287 287 286 286 285 284 284 285 285 286 287 288 289 291 292 293 294 294 294 291 288 284 280 276 272 268 264 261 258 254 251 248 246 243 241 238 236 234 233 231 230 229 227 226 224 223
311 311 311 310 310 310 311 312 313 313 314 315 317 318 321 322 324 324 325 325 325 326 326 327 328 327 326 322 318 313 307 303 300 299 299 299 299 297 292 288 286 286 286 285 284 284 284 285 288 291 294 297 299 301 303 305 306 307 308 307 303 298 291 284 278 273 269 265 261 257 254 250 247 244 241 238 236 234 232 231 229 228 226 224 223 221
311 311 311 310 310 311 312 313 314 315 316 318 319 321 324 325 326 327 327 327 327 328 329 331 331 331 328 325 321 315 309 305 303 302 301 302 301 298 292 287 285 285 285 284 283 283 286 291 298 303 307 309 311 313 315 316 319 321 323 325 324 319 310 299 289 280 273 268 264 260 256 252 248 245 242 239 236 233 231 229 228 226 224 222 220 219
311 311 311 311 311 312 313 315 316 318 319 320 322 323 325 327 328 329 329 329 329 330 332 333 333 332 329 326 322 317 311 308 306 305 305 305 304 299 291 286 284 284 284 282 283 286 292 301 308 311 311 312 313 314 314 314 316 320 325 328 330 328 323 316 304 292 281 272 266 261 257 253 249 245 242 238 235 232 229 227 225 224 222 220 218 216
311 311 311 311 312 313 315 316 318 320 321 322 323 325 326 328 329 330 331 331 331 331 332 333 333 331 329 326 322 318 314 310 309 308 308 309 307 300 289 284 283 283 283 283 285 290 298 306 309 309 309 309 309 307 306 307 311 317 323 327 328 327 325 320 313 302 291 280 271 263 258 253 249 244 241 237 234 231 228 225 223 221 219 217 215 214
311 311 312 312 313 315 317 318 320 321 322 323 324 326 327 328 329 330 331 331 331 331 332 333 333 333 331 327 324 320 316 313 312 312 312 312 310 302 288 281 280 281 282 283 285 291 300 305 307 307 308 309 309 308 307 309 313 318 323 326 327 326 324 320 314 306 296 286 276 267 260 254 249 244 240 236 233 229 226 224 221 218 216 214 212 211
311 312 312 314 315 317 319 320 321 322 323 324 325 326 328 329 330 331 331 331 331 331 331 333 334 335 333 329 325 322 319 317 316 316 317 317 314 303 285 278 278 279 279 280 285 292 298 301 303 306 310 314 313 313 313 314 317 320 323 325 327 327 326 322 316 308 299 289 279 270 262 255 249 244 239 235 231 228 224 221 218 215 212 210 209 207
312 312 314 315 317 318 319 321 322 323 323 324 325 326 327 328 329 329 330 330 330 330 332 333 335 335 333 330 327 323 321 321 322 324 325 325 321 303 279 275 277 279 278 279 284 290 293 293 297 303 312 317 318 318 318 318 319 321 324 327 329 330 330 326 321 313 303 293 283 273 264 257 250 243 237 232 227 223 219 216 213 210 208 206 205 203
312 313 314 316 317 318 319 320 321 322 322 322 323 324 325 325 327 328 329 330 330 330 332 333 335 335 334 331 328 325 324 325 329 333 336 335 328 302 273 271 276 282 284 286 288 288 283 278 279 293 313 321 324 323 323 323 323 325 328 331 334 336 335 333 328 323 314 302 289 277 266 256 247 238 231 224 219 215 211 208 206 204 202 201 200 199
312 313 314 315 317 318 319 320 320 320 320 320 321 321 322 323 325 327 329 330 330 331 333 334 335 335 334 331 328 326 325 328 335 342 345 343 335 304 269 270 280 290 297 300 295 286 270 238 207 189 350 334 328 325 326 326 327 328 330 335 339 341 341 339 337 333 327 316 300 282 263 248 235 224 217 211 207 204 201 199 198 197 197 197 196 196
312 313 314 316 317 318 318 318 318 318 318 318 319 319 321 322 323 325 328 329 331 332 334 335 336 335 333 331 329 327 326 329 337 347 351 349 342 317 284 283 293 307 316 313 294 265 225 171 138 108 61 353 329 328 329 329 329 330 334 340 344 345 343 342 342 344 343 337 319 277 235 216 206 201 198 196 194 193 193 192 192 193 193 193 193 193
313 314 315 316 316 317 317 317 316 316 317 317 318 319 320 322 323 324 327 328 330 333 335 336 336 334 332 332 331 329 326 329 337 347 351 351 345 331 313 307 312 320 330 329 283 214 178 152 124 97 66 355 329 329 332 332 332 335 340 345 347 345 340 339 343 353 6 18 58 151 168 175 179 182 183 184 186 186 187 188 189 189 190 190 191 191
314 315 315 315 316 316 315 316 316 316 317 318 319 320 321 322 323 324 326 328 330 333 336 337 335 333 331 332 332 331 328 328 335 344 347 347 343 335 321 315 316 322 332 343 236 184 171 156 128 93 53 338 325 328 332 334 336 340 345 348 347 342 335 332 334 354 31 74 127 150 158 164 169 173 176 179 181 182 183 185 186 187 187 188 189 190
316 316 316 316 316 316 316 317 318 319 320 321 322 323 323 324 324 325 326 328 330 333 335 335 334 333 332 333 334 334 332 331 335 341 342 341 339 333 322 314 312 314 320 343 171 178 171 162 139 108 21 319 319 325 332 335 339 344 347 347 343 337 330 324 319 311 200 159 158 159 159 162 166 170 173 176 178 180 181 182 183 184 186 187 189 191
318 318 318 318 318 319 320 321 322 323 324 325 326 326 326 326 327 327 328 330 331 333 334 334 333 332 333 334 336 337 336 335 337 341 341 338 336 332 323 314 307 303 295 270 190 178 169 156 147 156 253 302 314 324 332 339 344 347 347 344 339 334 329 322 311 287 242 193 170 162 160 163 166 170 173 175 177 179 181 182 183 184 186 188 190 192
320 320 321 322 323 324 325 326 327 328 329 330 330 330 331 331 331 332 333 333 334 334 334 333 333 333 335 337 339 338 337 338 341 345 345 342 339 335 327 317 308 299 278 242 209 186 168 152 160 187 233 288 313 324 334 343 348 348 345 340 335 332 329 326 317 301 276 224 178 163 162 165 168 172 175 178 180 182 183 184 185 187 188 190 192 194
324 324 325 327 328 329 331 331 332 333 334 335 335 335 335 335 336 336 336 336 336 335 334 334 335 336 337 339 340 340 339 340 345 350 352 351 349 346 339 330 323 314 291 247 219 200 178 160 164 188 223 270 306 324 338 346 348 346 342 337 333 332 332 334 333 326 309 262 188 170 168 170 172 176 179 182 185 187 188 189 190 191 192 193 195 196
328 329 330 332 333 334 335 336 337 338 339 340 340 340 340 339 339 339 339 338 337 337 336 335 336 338 340 342 343 342 341 343 347 352 356 359 1 0 358 355 355 0 19 51 86 143 156 148 154 177 226 271 301 323 339 346 347 344 339 334 332 334 341 348 355 359 0 17 164 166 167 172 175 179 183 187 190 192 194 195 196 196 197 197 197 197
332 333 335 336 337 338 340 341 343 344 345 345 345 343 342 341 341 341 341 340 339 338 337 337 338 339 341 344 345 344 343 344 346 350 355 0 5 7 9 9 9 14 26 38 45 42 37 34 32 345 300 302 313 327 338 346 346 342 336 332 335 343 358 13 28 40 52 72 102 131 149 159 167 175 183 189 193 196 199 200 200 200 200 199 199 198
336 337 338 340 342 343 345 348 349 350 350 350 348 347 345 344 343 342 342 341 341 340 339 339 339 340 341 343 344 343 342 342 342 345 348 352 358 3 6 8 8 10 13 17 20 18 12 3 351 336 322 320 324 332 340 347 347 341 334 331 338 356 26 49 59 63 68 78 97 120 140 153 163 173 181 189 194 198 201 202 202 202 201 201 201 200
340 341 343 344 346 349 351 354 355 355 354 352 350 349 348 346 344 343 342 342 341 341 340 340 340 340 341 343 343 342 341 338 338 338 340 342 346 350 356 360 3 5 7 7 6 3 355 344 332 324 319 318 321 329 341 348 348 340 330 332 347 26 66 75 77 77 80 88 105 127 148 160 168 176 183 190 196 200 203 204 204 203 203 203 203 202
344 346 347 349 351 354 356 358 359 358 356 354 353 352 350 348 346 343 342 341 341 341 340 340 339 340 341 342 343 342 340 337 334 332 332 333 335 338 342 347 353 357 358 357 355 352 349 343 333 324 318 316 318 323 331 344 345 335 325 335 15 76 92 92 90 90 95 105 122 143 160 170 177 182 189 194 199 202 205 206 205 205 204 204 205 204
349 350 352 354 355 357 359 1 1 360 358 357 356 354 353 351 348 346 343 342 342 342 341 341 340 340 341 342 342 342 341 338 333 329 326 325 326 327 330 334 341 346 347 345 343 343 344 343 338 329 322 319 318 321 330 343 341 330 322 344 63 100 105 102 98 96 100 115 142 169 181 184 187 190 195 199 203 205 207 207 207 207 207 206 206 205
353 354 355 357 358 359 1 2 2 1 359 358 357 356 355 353 350 348 346 345 345 345 344 343 343 342 342 342 342 342 342 340 336 331 325 320 318 317 319 322 329 335 338 337 335 336 338 339 337 333 331 333 334 339 340 344 336 323 320 4 99 115 114 107 100 95 95 123 185 206 205 197 191 191 193 197 200 203 205 206 207 208 209 209 208 206
356 357 358 359 359 0 1 2 2 2 1 360 359 357 355 352 350 348 347 347 347 346 346 345 344 344 344 344 345 345 344 343 340 336 330 323 317 312 311 313 319 327 333 333 333 335 337 339 340 345 359 25 32 8 355 353 334 315 318 65 119 126 121 112 103 101 112 161 202 205 200 190 183 182 183 185 189 193 197 201 203 206 208 209 209 208
358 359 359 360 0 0 1 2 2 2 2 1 359 357 353 350 348 348 348 348 348 347 347 347 348 349 349 350 351 351 350 348 346 343 339 333 326 320 314 313 318 327 336 338 341 345 349 353 3 21 49 61 45 22 11 1 326 308 328 112 132 138 137 131 127 131 150 171 178 175 174 173 171 170 170 172 174 178 183 188 194 199 203 206 207 207
359 0 1 2 2 2 1 1 1 1 360 359 358 356 353 349 348 349 349 350 349 349 350 351 354 356 358 359 359 358 357 355 353 350 347 344 339 333 328 325 329 341 350 354 355 357 5 20 38 56 66 61 46 35 31 9 308 303 37 116 139 152 157 157 155 155 157 156 152 150 153 156 159 159 160 161 162 165 168 172 178 184 191 195 198 200
0 2 3 3 3 3 2 1 0 359 358 357 356 355 353 351 350 351 352 351 352 353 355 359 2 4 5 5 5 3 1 359 357 356 354 353 350 347 343 342 352 7 13 12 10 9 14 39 59 66 61 52 46 49 90 144 179 73 85 107 133 152 164 166 162 154 145 140 137 137 140 145 150 152 153 153 153 154 156 160 164 168 172 177 181 185
0 2 3 4 4 4 3 1 360 358 357 356 356 355 354 353 353 354 354 355 357 360 3 6 8 9 9 8 7 5 4 2 1 360 359 358 357 357 357 3 16 30 31 28 21 20 32 69 79 74 64 53 45 150 156 137 118 99 92 99 113 130 145 148 143 134 128 126 127 127 131 136 141 144 146 145 145 145 148 152 155 156 158 161 165 167
0 2 3 4 4 4 3 2 0 359 358 357 357 356 356 356 356 356 357 359 3 7 11 12 12 11 9 8 7 6 6 5 4 4 2 2 3 7 13 23 36 43 40 34 26 31 60 89 95 93 93 116 161 148 129 121 112 103 97 99 105 113 120 123 122 119 118 118 119 120 124 129 135 139 140 139 139 140 144 147 148 149 151 153 155 157
359 0 2 2 3 3 3 2 1 0 360 359 358 358 357 358 358 358 360 3 9 13 16 16 14 11 9 7 7 7 8 8 8 8 7 8 11 17 27 40 50 53 48 38 34 44 74 99 113 123 136 142 136 129 124 119 113 107 104 104 107 111 114 114 113 112 111 112 114 117 121 126 132 135 137 137 138 140 142 144 145 146 147 150 151 152
358 358 359 0 1 1 2 2 1 1 0 360 359 359 359 359 359 360 2 6 12 17 19 18 15 11 9 8 8 9 11 12 12 12 13 15 20 30 42 53 61 61 56 46 43 54 82 107 122 130 128 122 121 122 121 118 114 111 109 110 111 113 113 112 110 108 107 108 111 115 120 125 130 133 135 136 138 140 142 143 144 145 146 148 149 150
355 356 357 358 358 359 359 360 0 0 0 0 360 360 360 359 359 360 2 7 13 18 20 19 15 11 9 8 9 11 13 16 17 18 20 24 32 43 54 63 67 66 60 51 49 62 91 110 118 119 118 118 120 121 121 118 115 114 113 114 115 115 114 112 109 106 104 105 109 114 120 126 130 133 135 136 137 140 142 143 143 144 146 147 147 148
Height
5403 5400 5396 5394 5391 5389 5386 5383 5381 5378 5375 5371 5368 5366 5364 5360 5357 5353 5350 5346 5342 5338 5334 5330 5327 5325 5323 5322 5320 5318 5315 5313 5310 5308 5306 5304 5303 5302 5301 5300 5299 5298 5296 5295 5294 5293 5292 5292 5291 5291 5291 5291 5291 5292 5292 5292 5292 5292 5292 5292 5292 5293 5293 5295 5296 5297 5299 5301 5303 5306 5309 5311 5314 5316 5319 5321 5324 5327 5331 5334 5337 5341 5345 5349 5353 5358
5395 5391 5388 5385 5383 5381 5378 5375 5373 5371 5367 5364 5361 5359 5356 5353 5349 5346 5342 5339 5336 5331 5328 5324 5321 5318 5316 5315 5313 5311 5309 5306 5304 5302 5300 5298 5297 5296 5294 5293 5292 5291 5290 5288 5287 5286 5285 5285 5284 5284 5284 5284 5284 5285 5285 5285 5286 5286 5286 5286 5286 5286 5286 5287 5289 5291 5292 5295 5297 5300 5303 5306 5308 5310 5311 5314 5317 5319 5322 5325 5328 5331 5335 5339 5344 5349
5387 5384 5381 5377 5375 5374 5371 5368 5365 5363 5360 5357 5354 5351 5348 5345 5341 5338 5335 5331 5328 5325 5321 5318 5314 5311 5309 5308 5306 5305 5303 5301 5298 5296 5294 5292 5291 5289 5288 5287 5286 5284 5282 5281 5280 5279 5278 5278 5277 5277 5277 5277 5277 5277 5277 5278 5278 5278 5279 5279 5279 5279 5279 5280 5282 5284 5286 5288 5291 5294 5297 5299 5301 5302 5304 5306 5309 5311 5314 5316 5320 5323 5326 5331 5335 5340
5379 5377 5373 5370 5367 5366 5363 5361 5358 5355 5352 5349 5346 5343 5341 5337 5334 5330 5327 5324 5321 5317 5314 5311 5308 5305 5302 5301 5300 5298 5296 5295 5292 5290 5288 5286 5285 5283 5282 5281 5279 5277 5276 5274 5273 5272 5272 5271 5271 5270 5270 5270 5269 5270 5270 5270 5271 5271 5271 5271 5272 5272 5273 5274 5275 5277 5279 5282 5284 5287 5289 5290 5292 5294 5296 5299 5301 5304 5306 5309 5312 5316 5319 5323 5327 5331
5371 5369 5366 5363 5360 5357 5355 5353 5350 5347 5344 5341 5339 5336 5333 5330 5326 5323 5320 5317 5313 5310 5307 5305 5302 5299 5297 5295 5293 5292 5291 5289 5287 5285 5283 5281 5279 5277 5276 5274 5272 5271 5269 5268 5267 5266 5266 5265 5264 5263 5263 5263 5263 5262 5262 5262 5263 5263 5264 5264 5265 5265 5266 5267 5268 5270 5272 5275 5276 5278 5280 5282 5284 5287 5289 5292 5295 5297 5300 5303 5306 5309 5312 5315 5319 5323
5364 5362 5360 5356 5353 5350 5348 5346 5343 5340 5337 5334 5331 5329 5326 5323 5319 5316 5313 5310 5307 5304 5301 5299 5296 5294 5291 5289 5287 5286 5284 5283 5281 5279 5277 5276 5273 5271 5270 5268 5266 5264 5263 5261 5261 5260 5259 5258 5257 5257 5256 5256 5256 5256 5256 5255 5256 5256 5256 5257 5257 5258 5259 5260 5261 5263 5265 5267 5269 5270 5272 5275 5278 5281 5283 5286 5288 5291 5294 5297 5300 5302 5306 5309 5312 5316
5357 5356 5354 5351 5347 5344 5342 5340 5337 5334 5331 5327 5324 5321 5319 5316 5312 5309 5306 5304 5301 5297 5295 5293 5291 5289 5286 5284 5282 5280 5278 5276 5275 5273 5271 5270 5267 5266 5263 5261 5260 5258 5257 5256 5254 5253 5252 5251 5251 5250 5250 5250 5249 5249 5249 5248 5248 5249 5249 5250 5251 5251 5252 5253 5255 5256 5258 5259 5261 5262 5265 5267 5270 5273 5276 5279 5281 5284 5287 5291 5294 5296 5299 5302 5305 5309
5351 5349 5347 5345 5342 5338 5336 5334 5332 5329 5325 5320 5316 5313 5310 5308 5305 5303 5301 5298 5295 5292 5289 5286 5285 5284 5282 5279 5276 5274 5272 5270 5268 5266 5265 5263 5261 5259 5257 5255 5254 5252 5251 5250 5248 5247 5246 5245 5244 5243 5243 5243 5243 5243 5242 5242 5242 5242 5242 5243 5243 5244 5245 5246 5248 5249 5250 5251 5253 5255 5257 5260 5263 5266 5269 5271 5274 5277 5281 5284 5287 5290 5293 5296 5299 5303
5346 5343 5340 5339 5336 5333 5329 5326 5324 5322 5318 5313 5308 5305 5301 5298 5296 5295 5294 5292 5290 5287 5284 5281 5279 5278 5277 5274 5271 5268 5265 5263 5261 5259 5258 5256 5254 5252 5251 5249 5248 5246 5245 5244 5242 5241 5239 5238 5237 5236 5236 5236 5236 5236 5236 5236 5235 5235 5235 5236 5236 5237 5238 5240 5241 5242 5243 5244 5246 5247 5250 5253 5256 5259 5261 5264 5266 5270 5273 5277 5280 5283 5286 5290 5293 5296
5341 5338 5335 5332 5331 5328 5325 5320 5316 5314 5311 5306 5301 5298 5295 5291 5288 5287 5286 5286 5285 5283 5279 5276 5273 5271 5270 5268 5266 5262 5259 5256 5255 5253 5251 5249 5247 5246 5244 5243 5242 5241 5239 5238 5236 5235 5233 5232 5231 5230 5230 5230 5230 5230 5229 5229 5229 5229 5229 5229 5230 5231 5232 5233 5234 5235 5236 5237 5239 5241 5243 5246 5248 5251 5253 5256 5258 5261 5265 5269 5273 5276 5280 5283 5286 5289
5335 5332 5330 5327 5324 5321 5318 5314 5310 5306 5303 5299 5295 5292 5290 5287 5283 5280 5278 5279 5279 5277 5275 5271 5269 5266 5263 5261 5258 5256 5253 5250 5248 5247 5246 5244 5241 5240 5238 5236 5236 5234 5233 5231 5230 5229 5227 5226 5225 5224 5223 5223 5223 5223 5223 5223 5222 5222 5222 5222 5223 5224 5225 5226 5227 5228 5229 5231 5232 5234 5236 5238 5240 5242 5245 5248 5251 5254 5257 5261 5265 5269 5272 5275 5279 5283
5331 5327 5324 5321 5317 5314 5311 5307 5304 5300 5297 5293 5289 5286 5284 5282 5280 5276 5273 5271 5271 5270 5268 5266 5264 5261 5258 5254 5251 5248 5246 5244 5242 5241 5240 5238 5236 5234 5232 5231 5230 5228 5227 5226 5225 5223 5222 5221 5219 5218 5218 5217 5217 5217 5217 5216 5216 5216 5216 5216 5216 5217 5218 5219 5220 5221 5222 5224 5225 5226 5227 5229 5231 5234 5236 5239 5242 5246 5250 5254 5257 5261 5264 5268 5273 5277
5326 5322 5318 5314 5311 5308 5304 5300 5296 5294 5291 5288 5284 5281 5278 5276 5275 5272 5268 5266 5265 5263 5261 5259 5258 5256 5253 5249 5245 5241 5239 5238 5237 5236 5235 5233 5231 5229 5227 5225 5224 5223 5222 5221 5220 5219 5217 5216 5214 5214 5213 5212 5212 5211 5211 5211 5211 5210 5210 5210 5211 5211 5211 5212 5213 5214 5216 5216 5217 5218 5220 5221 5224 5226 5229 5232 5235 5238 5242 5246 5250 5253 5257 5262 5266 5271
5320 5316 5312 5309 5306 5302 5299 5295 5291 5288 5285 5283 5279 5276 5273 5271 5270 5267 5264 5261 5260 5258 5256 5253 5252 5251 5248 5245 5241 5236 5234 5232 5231 5231 5230 5229 5227 5224 5222 5220 5219 5219 5217 5216 5215 5214 5213 5211 5210 5209 5209 5208 5207 5206 5206 5205 5205 5205 5205 5205 5205 5205 5206 5206 5207 5207 5208 5209 5210 5211 5212 5214 5216 5219 5221 5225 5228 5231 5234 5238 5241 5246 5251 5256 5260 5265
5314 5311 5306 5303 5300 5297 5294 5290 5286 5283 5281 5278 5275 5271 5269 5267 5265 5262 5259 5256 5254 5252 5250 5248 5247 5246 5244 5241 5236 5232 5229 5227 5226 5225 5225 5225 5223 5221 5217 5215 5215 5214 5213 5212 5211 5210 5209 5208 5206 5206 5205 5204 5203 5202 5201 5201 5200 5200 5200 5200 5200 5200 5200 5201 5201 5201 5201 5202 5203 5204 5206 5208 5210 5212 5215 5219 5221 5224 5227 5231 5235 5239 5244 5249 5254 5259
5309 5305 5301 5298 5295 5292 5289 5286 5281 5278 5275 5273 5270 5267 5265 5262 5260 5258 5255 5252 5249 5247 5246 5244 5242 5241 5241 5238 5234 5230 5225 5223 5221 5221 5221 5221 5220 5217 5214 5211 5210 5210 5210 5208 5207 5206 5205 5204 5203 5202 5201 5201 5199 5198 5197 5197 5196 5196 5196 5196 5196 5195 5196 5195 5195 5196 5196 5197 5198 5199 5200 5202 5204 5207 5210 5212 5215 5217 5221 5224 5228 5232 5237 5242 5248 5254
5303 5300 5296 5292 5289 5286 5284 5281 5277 5274 5271 5268 5266 5263 5261 5258 5256 5253 5251 5248 5246 5243 5242 5240 5238 5237 5236 5235 5233 5229 5224 5220 5218 5217 5217 5217 5216 5214 5210 5207 5206 5206 5206 5205 5204 5203 5202 5201 5200 5199 5199 5198 5197 5196 5195 5194 5193 5193 5192 5192 5192 5192 5191 5191 5191 5191 5191 5192 5193 5194 5195 5196 5198 5201 5203 5205 5208 5211 5214 5218 5222 5227 5231 5237 5243 5249
5299 5296 5291 5287 5284 5281 5279 5276 5273 5270 5266 5264 5261 5259 5258 5256 5253 5250 5247 5245 5242 5240 5239 5237 5235 5233 5231 5230 5229 5226 5222 5217 5214 5213 5213 5213 5212 5211 5207 5204 5203 5203 5203 5202 5201 5200 5199 5199 5198 5197 5196 5196 5195 5194 5193 5192 5191 5191 5190 5189 5189 5188 5187 5187 5187 5187 5187 5187 5188 5188 5189 5191 5192 5194 5196 5198 5201 5204 5207 5211 5216 5221 5226 5232 5238 5244
5294 5291 5287 5283 5279 5277 5275 5272 5269 5266 5262 5260 5258 5256 5254 5252 5250 5248 5245 5243 5241 5238 5236 5234 5232 5230 5228 5226 5225 5222 5219 5214 5211 5210 5210 5210 5209 5207 5205 5201 5200 5200 5200 5200 5199 5198 5197 5196 5196 5196 5195 5194 5193 5192 5191 5190 5190 5189 5188 5187 5187 5186 5185 5184 5183 5183 5183 5183 5183 5183 5184 5185 5185 5187 5189 5191 5194 5197 5201 5206 5210 5215 5221 5226 5232 5238
5289 5286 5283 5279 5275 5272 5270 5268 5266 5263 5259 5257 5255 5253 5251 5249 5248 5246 5243 5241 5239 5237 5235 5232 5230 5227 5225 5223 5221 5219 5216 5211 5209 5207 5206 5206 5206 5205 5201 5199 5198 5198 5198 5198 5197 5196 5195 5195 5194 5194 5193 5192 5191 5190 5189 5188 5187 5187 5186 5186 5185 5184 5182 5181 5180 5180 5179 5178 5178 5179 5178 5179 5180 5181 5183 5185 5188 5191 5196 5200 5204 5209 5214 5220 5226 5232
5284 5281 5279 5275 5271 5268 5266 5265 5263 5260 5257 5254 5252 5250 5248 5246 5245 5243 5241 5240 5237 5235 5233 5230 5227 5225 5222 5220 5218 5216 5213 5209 5206 5204 5203 5203 5203 5202 5199 5197 5196 5196 5196 5196 5195 5194 5194 5193 5192 5191 5191 5190 5189 5188 5187 5186 5185 5184 5184 5183 5182 5181 5180 5178 5177 5176 5176 5175 5175 5175 5175 5175 5176 5177 5178 5180 5183 5186 5190 5194 5198 5203 5208 5213 5220 5226
5279 5277 5275 5272 5268 5265 5263 5261 5259 5257 5255 5252 5250 5248 5246 5244 5242 5241 5239 5237 5234 5232 5230 5228 5226 5223 5221 5218 5216 5213 5210 5206 5203 5201 5200 5201 5201 5200 5197 5195 5194 5195 5195 5194 5193 5193 5192 5192 5191 5191 5190 5189 5189 5188 5187 5186 5185 5184 5182 5181 5180 5178 5177 5176 5174 5173 5172 5171 5171 5171 5170 5171 5171 5172 5174 5176 5178 5181 5184 5187 5192 5197 5202 5208 5215 5221
5276 5273 5271 5268 5265 5262 5260 5258 5256 5254 5252 5250 5248 5246 5244 5242 5239 5237 5235 5233 5231 5229 5228 5226 5224 5222 5219 5216 5213 5211 5208 5204 5201 5199 5198 5197 5197 5197 5195 5193 5193 5193 5193 5193 5192 5191 5191 5191 5190 5190 5190 5189 5188 5187 5186 5186 5185 5183 5182 5180 5179 5177 5176 5174 5172 5171 5169 5168 5167 5167 5167 5167 5167 5168 5169 5171 5173 5176 5179 5183 5187 5192 5198 5204 5211 5217
5272 5270 5267 5265 5262 5260 5258 5256 5254 5251 5249 5247 5245 5243 5241 5239 5237 5235 5233 5231 5229 5227 5226 5224 5222 5220 5217 5215 5212 5209 5206 5202 5199 5197 5196 5195 5195 5195 5194 5192 5192 5192 5192 5191 5191 5190 5190 5190 5190 5190 5189 5188 5188 5187 5186 5185 5183 5182 5181 5179 5178 5176 5175 5172 5171 5169 5167 5166 5165 5164 5164 5164 5164 5165 5166 5167 5170 5172 5176 5180 5184 5189 5195 5201 5207 5213
5269 5266 5264 5262 5260 5258 5256 5253 5251 5248 5246 5244 5241 5240 5238 5236 5234 5232 5231 5229 5227 5225 5223 5221 5219 5217 5215 5213 5210 5207 5205 5201 5198 5196 5194 5193 5193 5193 5192 5191 5191 5191 5191 5190 5189 5189 5189 5189 5189 5189 5188 5188 5187 5186 5185 5184 5183 5181 5181 5179 5178 5176 5174 5171 5169 5167 5166 5164 5163 5162 5162 5162 5162 5162 5163 5165 5167 5170 5173 5177 5182 5187 5193 5198 5204 5210
5266 5264 5262 5260 5258 5256 5253 5251 5249 5246 5244 5241 5239 5236 5235 5233 5232 5231 5229 5227 5225 5222 5220 5219 5217 5216 5213 5211 5208 5206 5203 5201 5198 5195 5193 5192 5191 5191 5191 5190 5190 5190 5190 5189 5189 5188 5188 5189 5189 5189 5188 5187 5186 5186 5185 5184 5183 5182 5181 5180 5177 5175 5173 5171 5168 5166 5164 5163 5162 5161 5161 5160 5161 5161 5162 5163 5166 5168 5172 5176 5180 5185 5191 5196 5202 5208
5265 5263 5260 5258 5256 5254 5252 5250 5247 5245 5242 5240 5237 5235 5232 5231 5229 5228 5226 5225 5222 5220 5218 5217 5215 5214 5212 5210 5207 5205 5202 5200 5197 5195 5193 5192 5191 5190 5190 5189 5189 5189 5189 5189 5188 5188 5188 5188 5188 5188 5188 5187 5186 5186 5185 5185 5184 5183 5181 5179 5177 5175 5172 5170 5167 5166 5164 5162 5161 5161 5160 5160 5160 5160 5161 5163 5165 5167 5171 5175 5179 5184 5189 5194 5201 5207
5263 5261 5259 5257 5255 5252 5250 5248 5246 5243 5241 5238 5236 5233 5231 5229 5227 5225 5224 5222 5220 5218 5217 5215 5214 5212 5211 5209 5207 5204 5202 5199 5197 5196 5194 5192 5191 5190 5189 5189 5189 5189 5188 5188 5187 5187 5187 5187 5187 5187 5187 5186 5186 5186 5186 5186 5184 5183 5181 5179 5177 5174 5172 5170 5167 5166 5164 5162 5161 5161 5160 5160 5160 5161 5162 5163 5165 5168 5171 5175 5179 5183 5188 5194 5200 5207
5262 5260 5258 5255 5253 5251 5249 5246 5244 5242 5239 5237 5234 5232 5230 5227 5225 5223 5221 5220 5219 5217 5216 5214 5212 5211 5210 5208 5206 5204 5201 5199 5197 5196 5194 5193 5191 5190 5189 5189 5189 5188 5188 5187 5187 5186 5187 5187 5187 5186 5186 5186 5186 5186 5186 5185 5184 5182 5181 5179 5176 5174 5172 5170 5168 5166 5165 5163 5162 5161 5161 5161 5161 5162 5163 5165 5166 5169 5172 5176 5180 5184 5189 5195 5201 5208
5261 5259 5256 5254 5252 5249 5247 5245 5242 5240 5238 5235 5233 5231 5228 5226 5224 5222 5220 5219 5217 5216 5215 5213 5211 5210 5209 5207 5206 5204 5201 5199 5197 5196 5195 5194 5192 5191 5190 5189 5188 5188 5187 5187 5186 5186 5186 5186 5186 5186 5186 5186 5186 5186 5186 5185 5183 5182 5181 5179 5176 5174 5172 5170 5168 5167 5166 5165 5164 5163 5163 5163 5163 5164 5165 5167 5169 5171 5175 5178 5182 5187 5192 5197 5204 5210
5260 5258 5256 5253 5251 5248 5246 5243 5241 5238 5236 5234 5231 5229 5226 5224 5222 5221 5219 5218 5216 5215 5214 5212 5211 5209 5208 5207 5206 5204 5202 5199 5196 5195 5195 5194 5193 5191 5190 5189 5188 5187 5187 5187 5187 5186 5186 5186 5186 5186 5186 5186 5186 5186 5185 5184 5183 5182 5180 5178 5176 5175 5172 5171 5169 5168 5167 5166 5165 5165 5164 5165 5165 5166 5168 5170 5172 5175 5178 5181 5186 5190 5195 5201 5206 5212
5258 5256 5254 5251 5249 5246 5244 5241 5239 5236 5234 5232 5230 5227 5225 5223 5221 5219 5218 5217 5216 5215 5213 5211 5210 5209 5207 5206 5205 5203 5201 5199 5196 5195 5194 5193 5192 5191 5190 5189 5188 5187 5187 5186 5186 5186 5186 5186 5185 5185 5185 5186 5186 5186 5185 5184 5183 5182 5180 5179 5177 5175 5172 5171 5170 5168 5167 5167 5166 5166 5166 5167 5168 5170 5171 5173 5176 5179 5182 5186 5190 5194 5199 5204 5209 5214
5256 5254 5251 5249 5247 5244 5242 5239 5237 5235 5232 5230 5228 5226 5224 5222 5221 5219 5217 5216 5215 5214 5213 5211 5210 5208 5207 5206 5204 5202 5200 5198 5196 5195 5194 5193 5192 5191 5190 5189 5188 5187 5187 5186 5186 5186 5186 5186 5185 5185 5185 5185 5185 5185 5185 5184 5183 5182 5181 5179 5177 5175 5172 5171 5170 5169 5168 5167 5167 5168 5169 5170 5171 5173 5175 5177 5180 5183 5186 5190 5194 5198 5202 5207 5211 5216
5254 5252 5249 5247 5245 5242 5240 5237 5235 5233 5231 5229 5227 5225 5223 5221 5220 5218 5217 5216 5214 5213 5212 5211 5209 5208 5206 5205 5204 5202 5200 5198 5197 5195 5194 5193 5192 5191 5189 5189 5188 5187 5186 5186 5186 5186 5185 5185 5185 5185 5185 5185 5185 5184 5184 5184 5183 5182 5181 5179 5177 5175 5173 5171 5171 5170 5169 5169 5170 5170 5171 5173 5174 5176 5178 5181 5184 5186 5190 5193 5196 5201 5204 5208 5212 5216
5252 5249 5247 5245 5243 5241 5239 5236 5234 5232 5230 5228 5226 5224 5223 5221 5220 5218 5216 5215 5214 5213 5211 5210 5209 5207 5206 5205 5204 5202 5201 5199 5197 5195 5194 5193 5192 5191 5189 5188 5187 5187 5186 5186 5186 5186 5186 5185 5185 5185 5185 5185 5184 5184 5184 5183 5183 5182 5181 5179 5177 5175 5173 5172 5171 5171 5171 5171 5171 5172 5173 5175 5177 5179 5181 5184 5186 5189 5192 5195 5198 5202 5205 5209 5212 5216
5250 5247 5245 5243 5241 5240 5238 5236 5234 5232 5230 5228 5226 5224 5222 5221 5219 5218 5216 5215 5214 5212 5211 5209 5208 5207 5206 5205 5204 5202 5201 5199 5197 5196 5195 5194 5192 5191 5190 5188 5188 5187 5186 5186 5186 5186 5186 5185 5185 5185 5184 5184 5184 5184 5183 5183 5183 5182 5181 5179 5177 5175 5174 5173 5172 5172 5172 5172 5173 5174 5176 5177 5179 5181 5183 5186 5188 5191 5193 5196 5199 5202 5205 5208 5212 5215
5248 5246 5244 5242 5241 5239 5237 5235 5233 5231 5230 5228 5226 5224 5222 5221 5219 5217 5216 5215 5213 5212 5211 5209 5207 5206 5206 5205 5204 5202 5201 5199 5197 5196 5195 5194 5193 5192 5191 5189 5188 5188 5187 5186 5186 5186 5186 5186 5185 5185 5185 5184 5184 5184 5183 5183 5183 5182 5181 5179 5177 5176 5175 5174 5173 5173 5173 5174 5174 5176 5177 5179 5181 5183 5184 5186 5189 5191 5193 5196 5198 5201 5205 5208 5211 5214
5247 5245 5243 5241 5240 5238 5236 5235 5233 5231 5229 5227 5226 5224 5222 5220 5219 5217 5216 5215 5213 5212 5210 5209 5207 5206 5205 5204 5203 5201 5200 5199 5197 5196 5195 5194 5193 5193 5191 5190 5189 5188 5187 5187 5186 5186 5186 5186 5186 5186 5185 5185 5184 5184 5184 5183 5183 5183 5181 5180 5178 5178 5177 5176 5175 5175 5175 5175 5176 5177 5179 5180 5182 5183 5185 5187 5189 5191 5193 5196 5198 5201 5204 5207 5210 5213
5246 5244 5242 5241 5239 5237 5236 5234 5232 5231 5229 5227 5226 5224 5222 5220 5219 5217 5216 5214 5213 5211 5210 5209 5207 5206 5205 5204 5202 5201 5200 5199 5197 5196 5195 5194 5193 5192 5192 5191 5189 5188 5187 5186 5186 5186 5185 5185 5185 5186 5186 5185 5185 5184 5184 5183 5183 5183 5182 5180 5179 5179 5178 5177 5177 5177 5177 5178 5178 5179 5180 5181 5182 5184 5186 5187 5189 5191 5193 5195 5198 5201 5204 5207 5210 5213
5245 5243 5242 5240 5238 5236 5235 5233 5232 5230 5229 5227 5225 5224 5222 5221 5219 5217 5216 5214 5213 5211 5210 5209 5207 5206 5205 5204 5203 5201 5200 5199 5197 5196 5195 5193 5193 5192 5191 5191 5189 5188 5187 5186 5186 5186 5185 5185 5185 5185 5185 5185 5185 5185 5184 5184 5184 5183 5182 5181 5181 5180 5180 5180 5180 5180 5179 5180 5180 5180 5181 5181 5183 5184 5185 5187 5189 5191 5193 5195 5198 5201 5205 5207 5210 5212
5245 5243 5241 5239 5238 5236 5235 5233 5231 5230 5228 5227 5226 5224 5223 5221 5220 5218 5217 5215 5214 5212 5211 5209 5208 5206 5205 5204 5202 5201 5200 5199 5197 5196 5195 5193 5192 5191 5191 5190 5190 5189 5188 5187 5186 5186 5185 5185 5185 5185 5185 5185 5185 5185 5184 5184 5184 5183 5182 5181 5181 5181 5181 5181 5181 5181 5181 5181 5181 5181 5182 5182 5183 5184 5186 5187 5189 5191 5193 5196 5198 5201 5204 5206 5209 5211
5244 5242 5241 5239 5237 5236 5234 5232 5231 5230 5228 5227 5226 5224 5223 5222 5221 5219 5217 5216 5215 5213 5211 5210 5209 5207 5205 5204 5202 5201 5200 5198 5197 5196 5195 5193 5192 5191 5190 5190 5190 5189 5188 5187 5186 5186 5186 5186 5186 5186 5185 5185 5185 5185 5184 5185 5184 5183 5182 5182 5182 5182 5182 5182 5183 5183 5183 5182 5182 5182 5183 5183 5184 5185 5186 5188 5190 5191 5193 5195 5197 5200 5202 5205 5207 5210
5243 5242 5240 5239 5237 5235 5234 5232 5231 5230 5228 5227 5226 5224 5223 5222 5221 5220 5218 5216 5215 5214 5212 5211 5209 5207 5206 5204 5202 5201 5199 5198 5196 5195 5194 5193 5192 5191 5191 5190 5190 5189 5188 5188 5187 5187 5187 5187 5186 5186 5185 5185 5185 5185 5185 5185 5184 5182 5182 5182 5183 5183 5183 5183 5183 5184 5184 5183 5183 5184 5184 5185 5186 5186 5188 5189 5191 5192 5194 5196 5197 5199 5201 5204 5207 5209
5243 5241 5240 5238 5237 5235 5234 5232 5231 5230 5229 5227 5226 5225 5223 5222 5221 5220 5218 5217 5215 5214 5213 5211 5210 5208 5206 5204 5202 5200 5199 5197 5196 5195 5194 5192 5192 5191 5191 5190 5189 5189 5189 5188 5188 5187 5187 5187 5186 5186 5186 5185 5185 5185 5185 5185 5184 5182 5182 5183 5183 5184 5184 5184 5184 5184 5184 5184 5184 5185 5186 5186 5187 5188 5189 5191 5192 5193 5195 5196 5198 5200 5201 5204 5206 5209
5243 5241 5240 5238 5237 5235 5234 5232 5231 5230 5229 5228 5226 5225 5224 5222 5221 5220 5219 5217 5216 5214 5213 5211 5210 5208 5206 5204 5202 5201 5199 5197 5196 5195 5193 5192 5191 5191 5190 5189 5189 5189 5189 5189 5188 5188 5187 5186 5186 5186 5186 5186 5186 5186 5185 5185 5184 5183 5182 5183 5184 5184 5184 5184 5184 5185 5185 5186 5186 5187 5188 5188 5189 5190 5191 5192 5193 5195 5196 5198 5199 5201 5202 5204 5206 5208
5243 5241 5240 5238 5237 5235 5234 5233 5231 5231 5229 5228 5227 5226 5224 5223 5221 5220 5219 5217 5216 5214 5213 5211 5210 5208 5206 5205 5203 5201 5200 5198 5196 5195 5193 5192 5191 5190 5190 5189 5189 5189 5189 5189 5189 5188 5188 5187 5186 5186 5186 5186 5186 5186 5185 5185 5184 5184 5183 5183 5184 5185 5185 5185 5186 5186 5187 5188 5188 5189 5190 5191 5191 5192 5193 5194 5195 5197 5198 5200 5201 5202 5204 5205 5207 5209
5243 5241 5240 5238 5237 5236 5235 5233 5232 5231 5230 5228 5227 5226 5225 5223 5222 5221 5219 5218 5216 5215 5213 5211 5210 5208 5207 5205 5204 5203 5201 5199 5197 5196 5194 5192 5191 5190 5190 5189 5189 5189 5189 5189 5189 5188 5188 5187 5187 5187 5187 5187 5186 5186 5185 5185 5185 5185 5184 5185 5185 5186 5186 5187 5188 5189 5190 5190 5191 5191 5192 5193 5193 5194 5195 5196 5197 5199 5201 5202 5203 5204 5205 5207 5208 5210
5243 5241 5240 5239 5237 5236 5235 5234 5232 5231 5230 5229 5227 5226 5225 5224 5222 5221 5220 5218 5216 5215 5213 5212 5210 5209 5207 5206 5205 5203 5202 5200 5198 5196 5194 5193 5191 5191 5190 5190 5190 5190 5189 5189 5189 5188 5188 5188 5188 5188 5188 5187 5186 5186 5186 5186 5186 5186 5186 5186 5186 5187 5188 5189 5190 5191 5192 5193 5193 5194 5195 5195 5196 5196 5198 5199 5200 5201 5202 5204 5205 5206 5207 5209 5211 5212
5243 5241 5240 5239 5237 5236 5235 5234 5233 5231 5230 5229 5228 5226 5225 5224 5223 5221 5220 5218 5217 5215 5214 5212 5211 5210 5208 5207 5206 5204 5203 5201 5199 5197 5195 5193 5192 5191 5191 5191 5191 5190 5190 5190 5189 5188 5188 5188 5188 5188 5188 5187 5187 5187 5187 5187 5187 5187 5188 5188 5189 5189 5190 5191 5192 5193 5194 5195 5196 5197 5197 5198 5198 5199 5200 5201 5203 5204 5205 5206 5207 5208 5209 5211 5212 5214
5243 5241 5240 5239 5238 5236 5236 5234 5233 5232 5231 5230 5228 5227 5226 5224 5223 5222 5221 5219 5217 5216 5214 5213 5212 5211 5210 5208 5207 5205 5203 5201 5200 5198 5196 5194 5193 5192 5192 5191 5191 5191 5191 5190 5190 5189 5189 5189 5188 5188 5188 5188 5188 5188 5188 5188 5189 5189 5189 5190 5191 5192 5193 5194 5195 5196 5197 5198 5199 5199 5200 5201 5201 5202 5203 5204 5205 5206 5207 5208 5209 5210 5211 5213 5215 5216
5243 5241 5240 5239 5238 5237 5236 5235 5233 5232 5231 5230 5229 5227 5226 5225 5223 5222 5221 5219 5218 5216 5215 5214 5213 5212 5211 5209 5208 5206 5204 5202 5201 5199 5197 5196 5195 5194 5193 5193 5192 5192 5192 5191 5191 5190 5190 5189 5189 5189 5189 5189 5190 5190 5190 5191 5191 5191 5191 5192 5193 5195 5196 5196 5197 5198 5199 5201 5201 5202 5202 5203 5204 5205 5205 5206 5207 5208 5209 5210 5211 5212 5214 5216 5217 5219